SCP
1 1 1 0 0 0 1 1 1 1 1 1 1 1 1 1 1 0 0 0 0 0 0 0 0 0 0 0 0 0 0 0 0 0 0 0 0 0 0 0 0 0 0
1 1 1 0 0 0 1 1 1 1 1 1 1 1 1 1 1 0 0 0 0 0 0 0 0 0 0 0 0 0 0 0 0 0 0 0 0 0 0 0 0 0 0
1 1 1 1 0 0 1 1 1 1 1 1 1 1 1 0 0 0 0 0 0 0 0 0 0 0 0 0 0 0 0 0 0 0 0 0 0 0 0 0 0 0 0
1 1 1 1 1 1 1 1 1 1 1 1 1 1 1 0 0 0 0 0 0 0 0 0 0 0 0 0 0 0 0 0 0 0 0 0 0 0 0 0 0 0 0
1 1 1 1 0 0 1 1 1 1 1 1 1 1 1 1 0 0 0 0 0 0 0 0 0 0 0 0 0 0 0 0 0 0 0 0 0 0 0 0 0 0 0
1 1 1 1 1 0 0 1 1 1 2 1 1 1 1 1 1 0 0 0 0 0 0 0 0 0 0 0 0 0 0 0 0 0 0 0 0 0 0 0 0 0 0
1 1 1 1 1 1 0 1 1 1 2 2 1 1 1 1 1 1 0 0 0 0 0 0 0 0 0 0 0 0 0 0 0 0 0 0 0 0 0 0 0 0 0
0 1 1 1 1 1 1 1 1 1 1 1 1 1 1 1 1 1 0 0 0 0 0 0 0 0 0 0 0 0 0 0 0 0 0 0 0 0 0 0 0 0 0
0 1 1 1 1 1 1 1 1 1 1 1 1 1 1 1 1 1 1 1 0 0 0 0 0 0 0 0 0 0 0 0 0 0 0 0 0 0 0 0 0 0 0
1 1 1 1 1 1 1 1 1 1 1 1 1 1 1 1 1 1 1 1 1 0 0 0 0 0 0 0 0 0 0 0 0 0 0 0 0 0 0 0 0 0 0
1 1 1 1 1 1 1 1 1 1 1 1 1 1 1 1 1 1 1 1 1 1 0 0 0 0 0 0 0 0 0 0 0 0 0 0 0 0 0 0 0 0 0
1 1 1 1 1 1 1 1 1 1 1 1 1 1 1 1 1 1 1 1 1 1 1 0 0 0 0 0 0 0 0 0 0 0 0 0 0 0 0 0 0 0 0
1 1 1 2 2 2 2 1 1 1 1 1 1 1 1 1 1 1 1 1 1 1 1 0 0 0 0 0 0 0 0 0 0 0 0 0 0 0 0 0 0 0 0
1 1 1 2 2 2 2 2 1 1 1 1 1 1 1 1 1 1 1 1 1 1 1 1 0 0 0 0 0 0 0 0 0 0 0 0 0 0 0 0 0 0 0
1 1 1 1 2 2 2 2 1 1 1 2 2 2 1 1 1 1 1 1 1 1 1 1 0 0 0 0 0 0 0 0 0 0 0 0 0 0 0 0 0 0 0
2 2 2 1 1 1 1 1 1 2 2 2 2 2 1 1 1 1 1 1 1 1 1 1 0 0 0 0 0 0 0 0 0 0 0 0 0 0 0 0 0 0 0
2 2 2 2 1 1 1 1 1 2 2 2 2 2 1 1 1 1 1 1 1 1 1 1 1 0 0 0 0 0 0 0 0 0 0 0 0 0 0 0 0 0 0
2 2 2 2 2 1 1 1 1 1 1 1 1 1 1 1 1 2 2 1 1 1 1 1 1 0 0 0 0 0 0 0 0 0 0 0 0 0 0 0 0 0 0
2 2 2 2 2 2 2 2 2 2 2 2 2 2 1 1 1 2 2 2 1 1 1 1 1 0 1 1 0 0 0 0 0 0 0 0 0 0 0 0 0 0 0
2 2 2 2 2 2 2 2 2 2 2 2 2 2 2 1 1 2 2 2 1 1 1 1 1 1 1 1 1 0 0 0 0 0 0 0 0 0 0 0 1 1 1
2 3 2 2 3 3 3 3 3 3 2 2 3 3 2 2 2 2 1 1 1 1 1 1 1 1 1 1 1 1 0 0 1 0 0 0 0 0 0 0 1 1 1
3 3 3 3 3 4 3 3 3 3 3 3 3 3 2 2 2 2 2 2 2 2 1 1 1 1 1 1 1 1 1 1 1 0 0 0 0 0 0 0 1 1 1
3 3 3 3 4 4 4 4 3 3 3 3 3 3 2 2 2 2 2 2 2 2 2 2 1 1 1 1 1 1 1 1 1 0 0 0 0 0 0 0 1 1 1
2 3 3 3 4 5 5 4 4 4 3 3 3 3 3 3 3 3 2 2 2 2 2 2 2 1 1 1 1 1 1 1 1 1 0 0 0 0 0 0 1 1 1
3 2 3 3 4 5 5 5 4 4 4 3 3 3 3 3 3 3 2 2 2 2 2 2 2 1 1 1 1 1 1 1 1 1 1 0 0 1 1 1 1 1 1
3 3 3 3 4 4 5 5 4 4 4 4 3 3 4 4 3 3 2 2 2 2 2 2 1 1 1 1 1 1 1 1 1 1 1 1 1 1 1 1 1 1 1
Wind_Speed
11 15 15 13 13 13 13 14 14 15 15 16 15 15 15 15 16 16 15 15 15 16 16 16 16 16 15 15 16 16 16 16 16 16 16 16 15 15 14 14 13 14 16
15 16 15 13 13 13 14 14 14 14 15 15 15 15 15 15 15 15 15 15 15 16 16 15 15 16 16 16 16 15 15 15 15 16 16 16 15 14 12 12 13 13 15
16 17 16 14 14 13 14 14 14 14 14 15 15 14 14 14 15 15 15 15 16 16 15 15 16 16 16 16 16 15 15 15 14 13 12 13 14 13 14 15 16 15 14
16 16 15 16 14 14 13 13 14 14 14 14 14 14 14 14 14 15 15 15 15 15 15 15 16 16 15 15 15 15 14 13 11 9 8 12 13 14 14 15 14 14 14
16 15 17 16 15 14 13 13 13 14 14 14 14 13 13 14 14 15 15 15 15 15 15 15 15 15 15 15 14 14 13 11 7 7 11 11 12 13 13 13 14 14 14
16 16 18 15 15 14 14 13 13 13 13 13 13 13 13 14 14 14 14 14 14 14 15 15 14 14 14 14 13 13 12 9 7 10 9 10 11 13 13 13 13 14 14
16 16 18 15 15 14 13 13 13 13 13 13 13 13 13 14 14 14 14 14 14 14 14 14 14 13 13 13 13 12 9 4 7 9 8 10 12 12 13 13 13 13 14
15 16 17 16 14 14 13 13 13 13 12 12 13 12 13 13 13 13 13 14 14 14 13 13 13 12 12 12 12 11 7 3 9 9 9 11 12 11 12 12 13 13 13
14 15 15 15 14 14 13 12 12 12 12 12 12 12 13 13 13 13 13 13 13 13 13 12 12 12 12 12 11 9 6 1 7 7 9 10 11 11 12 12 12 13 12
13 13 14 14 13 13 13 13 12 12 12 11 12 13 13 14 13 12 12 12 12 12 12 11 11 11 11 11 11 9 7 5 7 8 7 10 11 11 11 11 11 12 12
12 12 12 13 12 12 12 13 13 12 11 12 11 13 11 10 11 10 12 12 12 11 11 10 11 10 10 11 10 9 7 4 7 6 8 12 10 11 11 11 11 11 11
15 13 12 13 12 11 9 10 9 9 10 8 8 9 7 7 6 9 12 11 11 11 10 10 10 10 8 8 9 9 4 6 6 6 9 11 10 10 10 10 10 10 10
15 14 12 12 11 11 8 8 6 5 6 7 9 8 6 7 6 7 7 8 9 10 8 9 8 5 4 4 4 4 5 4 4 6 10 10 9 9 9 9 9 9 9
16 15 13 12 10 9 8 7 7 6 6 6 8 8 7 5 5 5 4 6 6 4 5 5 3 4 4 5 5 5 5 3 4 5 9 9 8 8 8 8 8 8 8
15 15 13 12 11 9 7 6 7 6 6 6 6 6 6 6 6 6 4 4 4 5 5 4 4 5 4 5 4 5 4 4 5 5 7 9 7 7 7 8 8 8 8
16 16 14 13 12 10 8 6 6 6 5 6 6 7 7 5 5 5 5 4 4 4 3 3 5 4 3 4 4 5 4 5 5 5 7 9 8 7 7 7 7 7 7
16 16 15 13 12 11 10 9 7 6 7 6 6 7 7 6 6 5 5 5 4 4 4 3 4 4 4 4 4 5 4 4 5 4 4 5 8 8 7 6 6 7 6
15 15 14 12 13 12 10 8 6 6 7 6 6 7 8 7 7 6 5 5 5 4 4 4 4 4 3 3 3 3 4 4 5 4 4 4 3 6 9 8 6 6 6
14 14 15 14 14 13 11 8 7 6 6 6 6 6 8 8 8 6 5 4 6 5 4 5 4 3 3 3 3 3 3 4 4 4 4 4 4 3 5 9 8 7 7
14 14 15 14 13 12 10 8 7 7 7 6 6 6 8 8 8 7 5 6 6 5 4 3 4 3 2 3 3 3 3 3 3 4 4 4 4 5 5 5 7 8 8
15 15 15 15 14 11 9 10 9 8 7 6 6 8 8 8 9 7 6 6 5 5 5 6 5 6 4 3 3 3 3 4 4 3 4 3 5 5 4 4 4 4 6
17 17 17 16 15 14 11 9 7 7 7 6 6 7 9 9 9 8 7 7 7 5 6 6 5 4 4 5 4 3 3 4 5 5 5 5 5 5 5 6 4 4 3
17 17 15 16 16 15 13 9 7 7 6 7 8 7 9 10 10 9 9 8 7 7 7 7 7 7 5 5 4 4 3 3 4 5 5 5 4 4 5 4 6 5 5
16 15 15 15 15 14 14 11 12 10 9 9 7 7 8 10 10 10 10 9 8 8 7 8 8 6 6 5 5 4 4 3 2 3 5 6 6 6 5 4 5 6 6
15 14 14 14 14 14 14 13 12 11 9 7 7 8 9 9 10 10 11 10 9 8 8 8 7 8 7 7 5 5 5 4 6 4 3 4 5 6 6 6 4 4 5
13 13 13 14 14 14 15 14 13 13 11 10 10 9 8 7 8 11 11 10 10 8 9 9 8 9 8 7 6 6 5 5 5 4 4 4 4 4 5 4 5 5 5
Wind_Direction
141 129 130 128 123 119 118 117 118 119 119 118 116 114 112 110 109 109 109 110 110 111 111 112 112 111 110 108 107 106 106 106 107 107 106 106 106 107 110 115 116 105 106
137 130 133 130 126 121 119 118 118 119 120 120 118 116 114 113 111 111 111 111 110 110 110 111 112 111 110 109 109 107 107 107 107 108 111 108 105 105 104 98 90 103 109
136 133 138 132 128 124 121 120 120 120 121 120 119 117 116 115 115 114 113 111 110 110 111 111 110 111 111 110 109 107 106 108 111 121 130 115 107 102 100 99 101 108 109
137 138 137 132 131 127 125 123 122 122 121 122 122 120 119 117 116 115 114 112 112 112 111 110 110 110 110 110 110 109 108 109 120 146 119 107 108 104 105 106 108 109 108
139 136 130 138 134 132 128 125 124 123 123 124 123 122 121 118 117 115 115 115 114 113 112 111 111 110 111 111 111 112 111 113 134 122 97 101 104 108 108 109 109 110 109
143 138 133 142 137 135 132 129 126 126 125 125 124 123 122 119 117 116 116 116 116 114 113 111 112 112 112 112 113 114 117 137 156 102 106 108 107 111 110 110 109 110 110
145 138 136 143 139 138 135 131 128 127 126 127 127 126 123 121 119 116 116 116 115 114 114 113 113 114 114 114 114 115 120 151 107 103 105 102 103 110 110 110 109 110 111
146 140 135 143 142 141 138 135 132 129 128 129 129 127 125 122 120 118 118 118 117 117 117 114 112 113 115 115 116 117 127 175 112 107 105 104 106 113 113 112 112 111 111
148 142 145 148 148 146 141 138 135 132 131 130 131 130 128 124 121 120 119 120 120 120 118 115 112 111 115 118 119 119 118 299 111 109 110 107 113 116 117 117 116 114 114
152 150 152 152 151 153 149 143 139 136 134 131 133 132 128 127 125 127 129 121 122 121 120 117 113 113 117 121 123 127 147 203 112 112 107 109 120 121 121 120 118 117 117
160 158 158 153 157 159 152 144 148 144 140 141 138 138 149 148 139 147 118 124 125 125 124 123 120 122 128 128 131 147 182 136 110 101 99 111 126 125 124 124 121 120 121
168 167 167 159 162 160 152 150 158 156 152 159 143 152 152 131 132 122 121 129 130 129 129 127 132 153 171 141 146 183 155 123 118 112 106 121 128 129 128 128 126 127 128
170 170 168 163 167 162 156 158 160 153 153 154 149 155 142 144 139 137 143 144 144 152 146 142 168 161 136 119 143 141 113 114 110 113 114 128 133 133 134 133 134 135 133
174 173 169 166 168 169 164 159 164 161 162 158 153 167 154 151 147 141 150 147 152 150 143 150 141 124 119 122 119 115 123 127 114 108 117 135 140 141 142 142 142 141 141
176 175 171 173 171 171 168 174 171 165 165 155 157 167 164 157 154 145 142 150 157 146 156 158 141 132 133 135 132 126 122 112 118 117 122 141 147 150 149 150 152 152 151
181 177 174 178 174 175 176 179 172 169 165 165 167 164 176 163 153 153 156 161 156 158 150 159 144 147 147 135 139 137 146 134 126 134 135 144 154 159 160 158 162 163 164
183 178 176 178 177 180 183 183 180 174 174 175 165 164 176 175 161 168 162 169 159 152 150 163 149 156 160 155 144 147 145 140 131 138 145 148 154 163 170 172 174 175 178
183 179 179 181 180 182 183 188 186 183 178 180 173 170 178 178 175 183 172 170 159 168 169 160 176 172 164 163 155 160 142 145 144 156 161 167 167 160 167 177 185 188 193
184 181 182 187 182 183 182 186 191 182 188 187 180 179 178 182 184 192 181 162 175 178 181 186 163 187 171 172 168 161 158 154 157 168 168 174 174 183 164 159 181 195 204
184 185 185 186 184 182 182 185 191 189 191 194 187 184 182 185 189 194 183 175 190 185 182 187 159 184 191 197 199 153 171 162 180 171 194 179 180 193 192 171 179 186 194
185 187 189 189 184 183 185 190 191 190 192 194 195 186 189 192 189 197 197 176 196 191 191 189 185 184 192 195 193 178 183 194 192 194 206 200 189 194 189 195 208 191 176
189 189 190 192 188 188 190 195 195 192 194 196 198 191 197 197 194 197 204 196 195 194 196 197 197 207 195 192 212 202 196 191 203 203 195 205 208 197 198 199 196 204 224
192 193 193 192 191 191 189 189 189 188 195 197 199 197 201 201 201 207 202 207 198 206 199 200 202 211 209 203 222 231 223 214 188 182 205 206 208 218 218 197 201 196 211
192 191 193 192 192 190 189 194 194 197 200 202 197 196 198 203 206 205 206 206 205 213 204 206 207 214 216 213 206 239 269 313 254 190 192 192 202 214 224 225 206 198 208
189 189 191 191 192 190 192 196 199 206 206 201 197 195 200 201 210 210 207 208 209 215 211 217 207 219 220 223 216 211 217 225 248 254 218 200 202 206 206 215 222 216 206
186 187 188 189 191 192 194 198 205 207 207 201 200 197 200 202 206 211 211 211 211 213 210 213 213 214 227 229 233 227 220 219 230 239 239 228 220 209 204 217 223 220 213